Weather Roundup
Issued by NWS Springfield, MO

Home | Current Version | Previous Version | Text Only | Print | Product List | Glossary On
Versions: 1 2 3 4 5 6 7 8 9 10 11 12 13 14 15 16 17 18 19 20 21 22 23 24 25 26 27 28 29 30 31 32 33 34 35 36 37 38 39 40 41 42 43 44 45 46 47 48 49 50
388
NZUS99 KSGF 250107
HRRSGF

HOURLY WEATHER
NATIONAL WEATHER SERVICE SPRINGFIELD MO
800 PM CDT SAT SEP 24 2016

......SGF CWA......

CITY           SKY/WX    TMP DP  RH WIND       PRES   REMARKS
SPRINGFIELD    CLEAR     81  66  60 SE8       30.00R
JOPLIN         CLEAR     82  68  62 SE5       29.98R
WEST PLAINS    CLEAR     76  67  73 CALM      30.05R
ROLLA          CLEAR     75  68  78 E5        30.02R
OSAGE BEACH    CLEAR     78  71  79 E3        30.01R
BRANSON        PTCLDY    77  68  73 S6        30.02R

......SURROUNDING SGF CWA......

CITY           SKY/WX    TMP DP  RH WIND       PRES   REMARKS
CHANUTE        CLOUDY    79  69  71 SE7       29.94R
PARSONS        CLOUDY    81  69  67 SE3       29.96R
COFFEYVILLE    CLOUDY    81  68  64 S6        29.95R
EMPORIA        LGT RAIN  72  71  97 CALM      29.92S
GROVE OK       PTCLDY    81  68  65 S3        29.98R
ROGERS AR      CLEAR     78  68  71 SE6       30.02R
SILOAM SPRINGS CLEAR     79  63  57 SE7         N/A
HARRISON AR    CLEAR     76  68  76 S3        30.02R
NEAR YELLVILLE CLEAR     79  66  65 CALM      29.98R

......KANSAS AND MISSOURI......

CITY           SKY/WX    TMP DP  RH WIND       PRES   REMARKS
KANSAS CTY INT CLOUDY    80  69  69 S6        29.96R
DOWNTOWN KC    CLOUDY    84  70  62 SE7       29.94R
COLUMBIA       CLEAR     79  70  74 SE6       30.01R
SEDALIA        CLEAR     79  71  76 SE8G25    29.99R
ST JOSEPH      TSTM      69  67  93 W3G18     30.02R VSB 3/4
ST LOUIS       CLEAR     85  63  47 S6        30.02R
SPIRIT OF STL  CLEAR     75  71  87 CALM      30.00S
KIRKSVILLE     CLEAR     76  67  73 SE8       30.00F
WICHITA        TSTM      68  68 100 CALM      29.95F
TOPEKA         RAIN      69  67  93 N8        29.95S FOG
OLATHE         PTCLDY    79  69  71 SE5       29.96R

......TENNESSEE......

CITY           SKY/WX    TMP DP  RH WIND       PRES   REMARKS
MEMPHIS        PTCLDY    88  65  46 SE5       29.99S HX  90
NASHVILLE      CLEAR     81  62  52 E6        30.06S

......ARKANSAS.......

CITY           SKY/WX    TMP DP  RH WIND       PRES   REMARKS
FAYETTEVILLE   CLEAR     73  69  87 CALM      30.01R
FT SMITH       CLEAR     84  64  50 S3        29.96R
LITTLE ROCK    PTCLDY    82  71  69 S3        29.97S

......OKLAHOMA.......

CITY           SKY/WX    TMP DP  RH WIND       PRES   REMARKS
TULSA          MOCLDY    87  68  52 S10       29.93R HX  90
PONCA CITY     HVY RAIN  68  66  93 VRB5      29.99R FOG
MCALESTER      CLEAR     82  66  58 SE5       29.95R
OKLAHOMA CITY  CLOUDY    73  64  73 NW17G32   29.97R THUNDER

......IOWA............

CITY           SKY/WX    TMP DP  RH WIND       PRES   REMARKS
DES MOINES     CLOUDY    82  68  62 SE10      29.95S
QUAD CITIES    CLEAR     73  67  81 E8        30.04R

......ILLINOIS........

CITY           SKY/WX    TMP DP  RH WIND       PRES   REMARKS
QUINCY         CLEAR     77  66  68 CALM      30.02R HAZE
CHICAGO        CLEAR     69  63  81 NE6       30.12S




USA.gov is the U.S. government's official web portal to all federal, state and local government web resources and services.